| time (UTC) | temp F | wind direction | speed MPH | gust MPH | rain 1hr in | rain 24hr in | rain mn in | humidity % | barometer mb |
| 20260509181521 | 53 | 61 | 7.0 | 17.0 | 0.00 | 0.00 | 0.00 | 31 | 1021.2 |
| 20260509180007 | 53 | 33 | 5.0 | 11.0 | 0.00 | 0.00 | 0.00 | 31 | 1021.3 |
| 20260509174520 | 53 | 63 | 4.0 | 7.0 | 0.00 | 0.00 | 0.00 | 32 | 1021.1 |
| 20260509173014 | 53 | 288 | 5.0 | 9.0 | 0.00 | 0.00 | 0.00 | 32 | 1021.0 |
| 20260509171527 | 53 | 8 | 4.0 | 12.0 | 0.00 | 0.00 | 0.00 | 32 | 1020.9 |
| 20260509170005 | 54 | 291 | 3.0 | 9.0 | 0.00 | 0.00 | 0.00 | 34 | 1020.8 |
| 20260509164516 | 54 | 347 | 3.0 | 6.0 | 0.00 | 0.00 | 0.00 | 33 | 1020.8 |
| 20260509163020 | 54 | 46 | 4.0 | 9.0 | 0.00 | 0.00 | 0.00 | 35 | 1020.8 |
| 20260509161528 | 54 | 294 | 3.0 | 9.0 | 0.00 | 0.00 | 0.00 | 32 | 1020.6 |
| 20260509160023 | 54 | 314 | 4.0 | 12.0 | 0.00 | 0.00 | 0.00 | 34 | 1020.4 |
| 20260509154508 | 54 | 298 | 3.0 | 8.0 | 0.00 | 0.00 | 0.00 | 33 | 1020.3 |
| 20260509153033 | 53 | 330 | 3.0 | 8.0 | 0.00 | 0.00 | 0.00 | 32 | 1020.2 |
| 20260509151527 | 52 | 15 | 1.0 | 3.0 | 0.00 | 0.00 | 0.00 | 34 | 1020.1 |
| 20260509150023 | 51 | 53 | 1.0 | 3.0 | 0.00 | 0.00 | 0.00 | 36 | 1020.2 |
| 20260509144525 | 48 | 52 | 0.0 | 3.0 | 0.00 | 0.00 | 0.00 | 41 | 1020.1 |
| 20260509143017 | 45 | 65 | 0.0 | 2.0 | 0.00 | 0.00 | 0.00 | 47 | 1020.1 |
| 20260509141516 | 42 | 108 | 0.0 | 1.0 | 0.00 | 0.00 | 0.00 | 51 | 1020.1 |
| 20260509140018 | 40 | 79 | 1.0 | 2.0 | 0.00 | 0.00 | 0.00 | 53 | 1020.1 |
| 20260509134526 | 39 | 78 | 1.0 | 3.0 | 0.00 | 0.00 | 0.00 | 55 | 1020.1 |
| 20260509133026 | 37 | 114 | 0.0 | 1.0 | 0.00 | 0.00 | 0.00 | 58 | 1019.9 |
| 20260509131515 | 37 | 271 | 1.0 | 3.0 | 0.00 | 0.00 | 0.00 | 58 | 1019.9 |
| 20260509130027 | 39 | 60 | 1.0 | 3.0 | 0.00 | 0.00 | 0.00 | 54 | 1019.6 |
| 20260509124534 | 38 | 109 | 0.0 | 0.0 | 0.00 | 0.00 | 0.00 | 55 | 1019.5 |
| 20260509123026 | 37 | 108 | 0.0 | 0.0 | 0.00 | 0.00 | 0.00 | 56 | 1019.5 |
| 20260509121536 | 37 | 108 | 0.0 | 0.0 | 0.00 | 0.00 | 0.00 | 55 | 1019.3 |
| 20260509120013 | 38 | 250 | 0.0 | 2.0 | 0.00 | 0.00 | 0.00 | 54 | 1018.9 |
| 20260509114516 | 39 | 269 | 0.0 | 2.0 | 0.00 | 0.00 | 0.00 | 51 | 1018.7 |
| 20260509113026 | 42 | 168 | 0.0 | 5.0 | 0.00 | 0.00 | 0.00 | 47 | 1018.4 |
| 20260509111503 | 41 | 58 | 0.0 | 2.0 | 0.00 | 0.00 | 0.00 | 48 | 1018.3 |
| 20260509110011 | 43 | 61 | 0.0 | 2.0 | 0.00 | 0.00 | 0.00 | 45 | 1018.1 |
| 20260509104523 | 45 | 154 | 3.0 | 6.0 | 0.00 | 0.00 | 0.00 | 43 | 1017.8 |
| 20260509103021 | 43 | 139 | 0.0 | 5.0 | 0.00 | 0.00 | 0.00 | 42 | 1017.8 |
| 20260509101508 | 45 | 127 | 0.0 | 5.0 | 0.00 | 0.00 | 0.00 | 39 | 1017.7 |
| 20260509100010 | 44 | 4 | 0.0 | 2.0 | 0.00 | 0.00 | 0.00 | 39 | 1017.5 |
| 20260509094511 | 44 | 198 | 0.0 | 4.0 | 0.00 | 0.00 | 0.00 | 40 | 1017.3 |
| 20260509093017 | 43 | 57 | 2.0 | 3.0 | 0.00 | 0.00 | 0.00 | 41 | 1017.2 |
| 20260509091520 | 43 | 120 | 1.0 | 2.0 | 0.00 | 0.00 | 0.00 | 42 | 1017.0 |
| 20260509090005 | 44 | 39 | 0.0 | 1.0 | 0.00 | 0.00 | 0.00 | 41 | 1016.7 |
| 20260509084516 | 47 | 278 | 1.0 | 2.0 | 0.00 | 0.00 | 0.00 | 36 | 1016.8 |
| 20260509083014 | 50 | 149 | 0.0 | 2.0 | 0.00 | 0.00 | 0.00 | 29 | 1016.5 |
| 20260509081528 | 52 | 78 | 1.0 | 4.0 | 0.00 | 0.00 | 0.00 | 26 | 1016.5 |
| 20260509080028 | 52 | 124 | 1.0 | 8.0 | 0.00 | 0.00 | 0.00 | 27 | 1016.4 |
| 20260509074507 | 52 | 99 | 2.0 | 4.0 | 0.00 | 0.00 | 0.00 | 28 | 1016.3 |
| 20260509073008 | 54 | 98 | 1.0 | 5.0 | 0.00 | 0.00 | 0.00 | 24 | 1016.2 |
| 20260509071517 | 54 | 98 | 2.0 | 7.0 | 0.00 | 0.00 | 0.00 | 24 | 1016.0 |
| 20260509070018 | 54 | 74 | 5.0 | 8.0 | 0.00 | 0.00 | 0.00 | 25 | 1016.1 |
| 20260509064526 | 54 | 157 | 3.0 | 11.0 | 0.00 | 0.00 | 0.00 | 27 | 1015.9 |
| 20260509063007 | 55 | 139 | 3.0 | 5.0 | 0.00 | 0.00 | 0.00 | 25 | 1016.0 |
| 20260509061516 | 55 | 100 | 2.0 | 8.0 | 0.00 | 0.00 | 0.00 | 25 | 1016.1 |
| 20260509060016 | 55 | 89 | 3.0 | 6.0 | 0.00 | 0.00 | 0.00 | 26 | 1016.3 |
| 20260509054526 | 55 | 123 | 1.0 | 7.0 | 0.00 | 0.00 | 0.00 | 27 | 1016.3 |
| 20260509053027 | 56 | 128 | 3.0 | 6.0 | 0.00 | 0.00 | 0.00 | 27 | 1016.3 |
| 20260509051508 | 56 | 139 | 3.0 | 7.0 | 0.00 | 0.00 | 0.00 | 27 | 1016.1 |
| 20260509050030 | 56 | 111 | 3.0 | 9.0 | 0.00 | 0.00 | 0.00 | 32 | 1016.0 |
| 20260509044517 | 55 | 132 | 2.0 | 5.0 | 0.00 | 0.00 | 0.00 | 35 | 1016.1 |
| 20260509043024 | 58 | 161 | 1.0 | 5.0 | 0.00 | 0.00 | 0.00 | 32 | 1016.2 |
| 20260509041535 | 57 | 86 | 1.0 | 4.0 | 0.00 | 0.00 | 0.00 | 33 | 1016.4 |
| 20260509040010 | 57 | 86 | 1.0 | 4.0 | 0.00 | 0.00 | 0.00 | 35 | 1016.5 |
| 20260509034514 | 58 | 110 | 4.0 | 7.0 | 0.00 | 0.00 | 0.00 | 34 | 1016.4 |
| 20260509033027 | 59 | 103 | 1.0 | 6.0 | 0.00 | 0.00 | 0.00 | 34 | 1016.1 |
| 20260509031531 | 58 | 105 | 1.0 | 6.0 | 0.00 | 0.00 | 0.00 | 34 | 1016.1 |
| 20260509030028 | 58 | 82 | 3.0 | 5.0 | 0.00 | 0.00 | 0.00 | 33 | 1016.1 |
| 20260509024515 | 58 | 122 | 0.0 | 2.0 | 0.00 | 0.00 | 0.00 | 33 | 1016.1 |
| 20260509023026 | 59 | 34 | 3.0 | 6.0 | 0.00 | 0.00 | 0.00 | 32 | 1016.1 |
| 20260509021522 | 60 | 51 | 1.0 | 5.0 | 0.00 | 0.00 | 0.00 | 31 | 1015.8 |
| 20260509020025 | 61 | 30 | 2.0 | 3.0 | 0.00 | 0.00 | 0.00 | 30 | 1015.8 |
| 20260509014529 | 62 | 23 | 1.0 | 3.0 | 0.00 | 0.00 | 0.00 | 30 | 1016.0 |
| 20260509013014 | 64 | 307 | 2.0 | 3.0 | 0.00 | 0.00 | 0.00 | 30 | 1016.0 |
| 20260509011527 | 64 | 287 | 1.0 | 4.0 | 0.00 | 0.00 | 0.00 | 29 | 1016.0 |
| 20260509010008 | 64 | 283 | 2.0 | 4.0 | 0.00 | 0.00 | 0.00 | 27 | 1016.1 |
| 20260509004524 | 64 | 289 | 1.0 | 5.0 | 0.00 | 0.00 | 0.00 | 26 | 1016.1 |
| 20260509003005 | 65 | 285 | 3.0 | 11.0 | 0.00 | 0.00 | 0.00 | 25 | 1016.2 |
| 20260509001517 | 65 | 316 | 3.0 | 11.0 | 0.00 | 0.00 | 0.00 | 25 | 1016.3 |
| 20260509000009 | 66 | 318 | 4.0 | 9.0 | 0.00 | 0.00 | 0.00 | 27 | 1016.3 |
| 20260508234520 | 64 | 314 | 5.0 | 13.0 | 0.00 | 0.00 | 0.00 | 29 | 1016.4 |
| 20260508233026 | 64 | 277 | 5.0 | 8.0 | 0.00 | 0.00 | 0.00 | 32 | 1016.4 |
| 20260508231509 | 64 | 277 | 5.0 | 10.0 | 0.00 | 0.00 | 0.00 | 33 | 1016.3 |
| 20260508230023 | 65 | 248 | 5.0 | 14.0 | 0.00 | 0.00 | 0.00 | 30 | 1016.2 |
| 20260508224508 | 66 | 283 | 9.0 | 12.0 | 0.00 | 0.00 | 0.00 | 30 | 1016.3 |
| 20260508223012 | 66 | 315 | 6.0 | 12.0 | 0.00 | 0.00 | 0.00 | 30 | 1016.2 |
| 20260508221527 | 67 | 316 | 5.0 | 14.0 | 0.00 | 0.00 | 0.00 | 28 | 1016.1 |
| 20260508220010 | 66 | 276 | 3.0 | 10.0 | 0.00 | 0.00 | 0.00 | 28 | 1016.2 |
| 20260508214512 | 66 | 288 | 5.0 | 7.0 | 0.00 | 0.00 | 0.00 | 27 | 1016.3 |
| 20260508213021 | 67 | 321 | 9.0 | 15.0 | 0.00 | 0.00 | 0.00 | 27 | 1016.5 |
| 20260508211520 | 67 | 253 | 4.0 | 8.0 | 0.00 | 0.00 | 0.00 | 27 | 1016.5 |
| 20260508210012 | 66 | 281 | 6.0 | 11.0 | 0.00 | 0.00 | 0.00 | 27 | 1016.8 |
| 20260508204514 | 66 | 246 | 5.0 | 12.0 | 0.00 | 0.00 | 0.00 | 26 | 1016.9 |
| 20260508203012 | 66 | 290 | 4.0 | 12.0 | 0.00 | 0.00 | 0.00 | 26 | 1016.9 |
| 20260508201515 | 66 | 223 | 5.0 | 18.0 | 0.00 | 0.00 | 0.00 | 27 | 1017.2 |
| 20260508200013 | 65 | 274 | 5.0 | 13.0 | 0.00 | 0.00 | 0.00 | 26 | 1017.1 |
| 20260508194516 | 65 | 308 | 4.0 | 9.0 | 0.00 | 0.00 | 0.00 | 30 | 1017.3 |
| 20260508193013 | 65 | 289 | 5.0 | 15.0 | 0.00 | 0.00 | 0.00 | 27 | 1017.3 |
| 20260508191523 | 63 | 249 | 5.0 | 14.0 | 0.00 | 0.00 | 0.00 | 30 | 1017.4 |
| 20260508190014 | 64 | 278 | 3.0 | 9.0 | 0.00 | 0.00 | 0.00 | 27 | 1017.6 |
| 20260508184516 | 64 | 206 | 2.0 | 12.0 | 0.00 | 0.00 | 0.00 | 31 | 1017.6 |
| 20260508183016 | 64 | 136 | 0.0 | 6.0 | 0.00 | 0.00 | 0.00 | 32 | 1017.8 |